This demonstration page uses our WeatherBlox Daily Observations layout. Learn more.

Left ArrowRight Arrow

Hourly Observations for January 9, 2022

Temp ( °F °C ) Dew Point ( °F °C ) Humidity (%) Winds ( mph kmh ) Pressure ( in mb ) Visibility ( mi km ) Precip ( " mm )
12:15 am 00:15 Clear 28 -2 19 -7 69 69 S 7 11 30.51 1033 10 16 N/A
12:35 am 00:35 Clear 28 -2 19 -7 69 69 SSW 5 7 30.51 1033 10 16 N/A
12:55 am 00:55 Clear 28 -2 19 -7 69 69 SSW 6 9 30.51 1033 10 16 N/A
1:15 am 01:15 Clear 28 -2 19 -7 69 69 S 6 9 30.50 1033 10 16 N/A
1:35 am 01:35 Clear 28 -2 19 -7 69 69 S 6 9 30.49 1032 10 16 N/A
1:55 am 01:55 Mostly Cloudy 28 -2 19 -7 69 69 S 3 6 30.48 1032 10 16 N/A
2:15 am 02:15 Mostly Cloudy 28 -2 19 -7 69 69 S 6 9 30.47 1032 10 16 N/A
2:35 am 02:35 Clear 28 -2 19 -7 69 69 S 3 6 30.46 1031 10 16 N/A
2:55 am 02:55 Partly Cloudy 28 -2 19 -7 69 69 S 5 7 30.45 1031 10 16 N/A
3:15 am 03:15 Cloudy 30 -1 21 -6 69 69 S 9 15 30.42 1030 10 16 N/A
3:35 am 03:35 Cloudy 30 -1 21 -6 69 69 S 7 11 30.42 1030 10 16 N/A
3:55 am 03:55 Cloudy 30 -1 21 -6 69 69 SSW 6 9 30.41 1030 10 16 N/A
4:15 am 04:15 Cloudy 30 -1 21 -6 69 69 S 7 11 30.38 1029 10 16 N/A
4:35 am 04:35 Cloudy 30 -1 21 -6 69 69 S 9 15 30.37 1029 10 16 N/A
4:55 am 04:55 Cloudy 32 undefined 23 -5 69 69 S 6 9 30.37 1029 10 16 N/A
5:15 am 05:15 Cloudy 30 -1 23 -5 75 75 S 6 9 30.36 1028 10 16 N/A
5:35 am 05:35 Cloudy 32 undefined 21 -6 64 64 SSE 7 11 30.34 1027 10 16 N/A
5:55 am 05:55 Cloudy 32 undefined 21 -6 64 64 S 9 15 30.34 1027 10 16 N/A
6:15 am 06:15 Cloudy 32 undefined 23 -5 69 69 S 9 15 30.33 1027 10 16 N/A
6:35 am 06:35 Cloudy 32 undefined 23 -5 69 69 S 8 13 30.33 1027 10 16 N/A
6:55 am 06:55 Cloudy 32 undefined 23 -5 69 69 S 9 15 30.32 1027 10 16 N/A
7:15 am 07:15 Cloudy with Light Wintry Mix 32 undefined 25 -4 75 75 S 10 17 30.29 1026 10 16 N/A
7:35 am 07:35 Cloudy 32 undefined 25 -4 75 75 SSW 8 13 30.31 1026 10 16 N/A
7:55 am 07:55 Cloudy 32 undefined 23 -5 69 69 S 10 17 30.31 1026 10 16 N/A
8:15 am 08:15 Cloudy 32 undefined 23 -5 69 69 S 3 6 30.30 1026 10 16 N/A
8:35 am 08:35 Cloudy 32 undefined 25 -4 75 75 S 3 6 30.30 1026 10 16 N/A
8:55 am 08:55 Cloudy 32 undefined 25 -4 75 75 S 7 11 30.29 1026 10 16 N/A
9:15 am 09:15 Cloudy 32 undefined 27 -3 80 80 SSW 3 6 30.30 1026 10 16 N/A
9:35 am 09:35 Mostly Cloudy 32 undefined 27 -3 80 80 S 3 6 30.29 1026 10 16 N/A
9:55 am 09:55 Mostly Cloudy 32 undefined 27 -3 80 80 SSW 5 7 30.29 1026 10 16 N/A
10:15 am 10:15 Cloudy 34 1 27 -3 75 75 S 5 7 30.28 1025 10 16 N/A
10:35 am 10:35 Cloudy 34 1 28 -2 81 81 W 5 7 30.29 1026 10 16 N/A
10:55 am 10:55 Cloudy with Light Wintry Mix 34 1 28 -2 81 81 N N/A 30.27 1025 5 8 0.01 0.25
11:15 am 11:15 Cloudy with Light Wintry Mix 34 1 30 -1 87 87 N N/A 30.25 1024 5 8 0.01 0.25
11:35 am 11:35 Cloudy with Light Wintry Mix 34 1 32 undefined 93 93 N N/A 30.23 1024 7 11 0.02 0.51
11:55 am 11:55 Cloudy with Light Snow 34 1 32 undefined 93 93 N N/A 30.22 1023 3 4 0.06 1.52
12:15 pm 12:15 Cloudy with Light Wintry Mix 32 undefined 32 undefined 100 100 N N/A 30.20 1023 5 8 0.02 0.51
12:35 pm 12:35 Cloudy with Light Wintry Mix 34 1 32 undefined 93 93 N N/A 30.18 1022 5 8 0.04 1.02
12:55 pm 12:55 Cloudy with Light Wintry Mix 32 undefined 32 undefined 100 100 N N/A 30.17 1022 5 8 0.05 1.27
1:15 pm 13:15 Cloudy with Light Wintry Mix 34 1 34 1 100 100 N N/A 30.15 1021 4 6 N/A
1:35 pm 13:35 Cloudy with Light Wintry Mix 34 1 34 1 100 100 N N/A 30.14 1021 4 6 0.02 0.51
1:55 pm 13:55 Cloudy with Light Wintry Mix 34 1 34 1 100 100 N N/A 30.12 1020 4 6 0.03 0.76
2:15 pm 14:15 Cloudy with Light Rain 34 1 34 1 100 100 N N/A 30.12 1020 7 11 N/A
2:35 pm 14:35 Cloudy 34 1 34 1 100 100 N N/A 30.11 1020 7 11 N/A
2:55 pm 14:55 Cloudy with Light Rain 36 2 36 2 100 100 N N/A 30.10 1019 5 8 N/A
3:15 pm 15:15 Cloudy with Mist and Fog 36 2 36 2 100 100 N N/A 30.10 1019 5 8 N/A
3:35 pm 15:35 Cloudy with Light Rain 36 2 36 2 100 100 N N/A 30.10 1019 4 6 0.01 0.25
3:55 pm 15:55 Cloudy with Mist and Fog 36 2 36 2 100 100 N N/A 30.09 1019 5 8 0.01 0.25
4:15 pm 16:15 Mostly Cloudy with Mist and Fog 36 2 36 2 100 100 SW 3 6 30.08 1019 5 8 N/A
4:35 pm 16:35 Mostly Cloudy with Mist and Fog 36 2 36 2 100 100 N N/A 30.08 1019 5 8 N/A
4:55 pm 16:55 Cloudy with Light Rain 36 2 36 2 100 100 WNW 3 6 30.09 1019 4 6 0.01 0.25
5:15 pm 17:15 Cloudy with Light Rain 36 2 36 2 100 100 N N/A 30.08 1019 5 8 0.01 0.25
5:35 pm 17:35 Cloudy with Rain 36 2 36 2 100 100 N N/A 30.07 1018 5 8 0.01 0.25
5:55 pm 17:55 Cloudy with Rain 36 2 36 2 100 100 N N/A 30.08 1019 3 5 0.03 0.76
6:15 pm 18:15 Cloudy with Light Rain 37 3 37 3 100 100 N N/A 30.08 1019 3 5 0.01 0.25
6:35 pm 18:35 Cloudy with Light Rain 37 3 37 3 100 100 NNW 3 6 30.08 1019 4 6 0.01 0.25
6:55 pm 18:55 Cloudy with Drizzle 37 3 37 3 100 100 NNW 6 9 30.09 1019 7 11 0.01 0.25
7:15 pm 19:15 Cloudy 37 3 37 3 100 100 NW 6 9 30.11 1020 7 11 N/A
7:35 pm 19:35 Cloudy 39 4 39 4 100 100 W 5 7 30.10 1019 7 11 N/A
7:55 pm 19:55 Mostly Cloudy 39 4 39 4 100 100 W 6 9 30.10 1019 7 11 N/A
8:15 pm 20:15 Partly Cloudy 39 4 39 4 100 100 WNW 5 7 30.10 1019 7 11 N/A
8:35 pm 20:35 Mostly Cloudy 41 5 41 5 100 100 WNW 6 9 30.09 1019 10 16 N/A
8:55 pm 20:55 Mostly Cloudy 43 6 41 5 93 93 NW 7 11 30.09 1019 10 16 N/A
9:15 pm 21:15 Clear 45 7 41 5 87 87 NW 7 11 30.10 1019 10 16 N/A
9:35 pm 21:35 Mostly Cloudy 46 8 41 5 82 82 NW 9 15 30.10 1019 10 16 N/A
9:55 pm 21:55 Partly Cloudy 45 7 39 4 81 81 NW 13 20 30.10 1019 10 16 N/A
10:15 pm 22:15 Clear 45 7 37 3 76 76 NW 14 22 30.11 1020 10 16 N/A
10:35 pm 22:35 Partly Cloudy 45 7 36 2 71 71 NW 13 20 30.11 1020 10 16 N/A
10:55 pm 22:55 Partly Cloudy 45 7 36 2 71 71 N N/A 30.13 1020 10 16 N/A
11:15 pm 23:15 Cloudy 43 6 34 1 71 71 NNW 10 17 30.14 1021 10 16 N/A
11:35 pm 23:35 Cloudy 43 6 32 undefined 66 66 NNW 9 15 30.15 1021 10 16 N/A
11:55 pm 23:55 Cloudy 41 5 32 undefined 70 70 NW 7 11 30.15 1021 10 16 N/A

Powered by AerisWeather